N1LTP Weather Reports


Display with metric or nautical units.
time (UTC)temp
F
wind
direction
speed
MPH
gust
MPH
rain 1hr
in
rain 24hr
in
rain mn
in
humidity
%
barometer
mb
20260506200038 59 155 1.0 5.0 0.00 0.00 0.00 90 1007.6
20260506194536 60 261 2.0 6.0 0.00 0.00 0.00 87 1007.8
20260506193036 61 136 0.0 3.0 0.00 0.00 0.00 84 1007.8
20260506191535 62 277 1.0 6.0 0.00 0.00 0.00 79 1007.8
20260506190035 63 235 1.0 9.0 0.00 0.00 0.00 78 1008.0
20260506184535 63 289 1.0 6.0 0.00 0.00 0.00 76 1007.8
20260506183033 64 204 2.0 8.0 0.00 0.00 0.00 75 1008.0
20260506181539 65 134 2.0 7.0 0.00 0.00 0.00 74 1008.1
20260506180033 65 140 1.0 9.0 0.00 0.00 0.00 74 1008.2
20260506174532 66 211 2.0 9.0 0.00 0.00 0.00 73 1008.5
20260506173027 66 59 2.0 12.0 0.00 0.00 0.00 73 1008.9
20260506171538 67 22 2.0 12.0 0.00 0.00 0.00 71 1008.8
20260506170025 68 292 1.0 10.0 0.00 0.00 0.00 72 1008.7
20260506164524 67 144 5.0 18.0 0.00 0.00 0.00 70 1009.1
20260506163023 67 67 1.0 7.0 0.00 0.00 0.00 71 1009.2
20260506161520 67 36 2.0 9.0 0.00 0.00 0.00 70 1009.3
20260506160020 68 205 3.0 10.0 0.00 0.00 0.00 69 1009.5
20260506154519 68 140 2.0 11.0 0.00 0.00 0.00 70 1009.7
20260506153016 67 252 3.0 10.0 0.00 0.00 0.00 71 1010.0
20260506151518 66 244 1.0 10.0 0.00 0.00 0.00 73 1009.9
20260506150012 66 211 3.0 8.0 0.00 0.00 0.00 73 1010.0
20260506144510 66 202 2.0 12.0 0.00 0.00 0.00 72 1010.0
20260506143010 66 319 2.0 9.0 0.00 0.00 0.00 72 1009.8
20260506141508 65 327 1.0 11.0 0.00 0.00 0.00 73 1010.0
20260506140016 65 197 2.0 9.0 0.00 0.00 0.00 74 1009.7
20260506134504 65 162 1.0 8.0 0.00 0.01 0.00 75 1010.0
20260506133102 63 293 0.0 5.0 0.00 0.01 0.00 78 1010.4
20260506131612 62 309 2.0 7.0 0.00 0.01 0.00 80 1010.5
20260506130056 61 109 2.0 8.0 0.00 0.01 0.00 81 1010.6
20260506124550 60 256 1.0 4.0 0.00 0.07 0.00 82 1010.6
20260506123052 60 155 2.0 9.0 0.00 0.07 0.00 83 1010.6
20260506121550 59 283 1.0 3.0 0.00 0.07 0.00 85 1010.5
20260506120050 59 73 0.0 7.0 0.00 0.07 0.00 85 1010.9
20260506114551 59 159 0.0 4.0 0.00 0.07 0.00 86 1010.8
20260506113041 58 128 1.0 5.0 0.00 0.07 0.00 88 1011.0
20260506111539 57 196 1.0 4.0 0.00 0.07 0.00 89 1011.0
20260506110038 57 153 0.0 5.0 0.00 0.07 0.00 89 1010.9
20260506104538 57 136 1.0 4.0 0.00 0.07 0.00 89 1010.9
20260506103035 56 87 1.0 4.0 0.00 0.07 0.00 90 1010.9
20260506101533 56 188 1.0 5.0 0.00 0.07 0.00 90 1010.9
20260506100032 56 331 0.0 4.0 0.00 0.07 0.00 90 1010.7
20260506094529 56 101 0.0 4.0 0.00 0.07 0.00 89 1010.6
20260506093028 56 217 0.0 8.0 0.00 0.07 0.00 89 1010.6
20260506091527 56 153 0.0 4.0 0.00 0.07 0.00 89 1010.7
20260506090026 56 171 0.0 4.0 0.00 0.07 0.00 89 1010.6
20260506084525 57 76 1.0 7.0 0.00 0.07 0.00 88 1010.8
20260506083024 57 74 0.0 3.0 0.00 0.07 0.00 88 1010.8
20260506081523 57 152 1.0 6.0 0.00 0.07 0.00 88 1010.9
20260506073021 57 235 0.0 6.0 0.00 0.07 0.00 86 1010.8
20260506071520 57 227 0.0 3.0 0.00 0.07 0.00 85 1010.7
20260506061517 58 147 0.0 4.0 0.00 0.07 0.00 83 1010.6
20260506044515 57 110 1.0 5.0 0.00 0.07 0.00 82 1011.2
20260506043008 57 80 1.0 5.0 0.00 0.07 0.00 81 1011.2
20260506041505 58 159 1.0 4.0 0.00 0.07 0.00 80 1011.2
20260506040003 58 110 2.0 6.0 0.00 0.07 0.00 79 1011.1
20260506034501 58 138 1.0 5.0 0.00 0.07 0.07 78 1011.0
20260506033001 58 57 1.0 4.0 0.00 0.07 0.07 78 1011.0
20260506031604 58 127 2.0 5.0 0.00 0.07 0.07 77 1010.9
20260506030116 58 155 1.0 5.0 0.00 0.07 0.07 76 1011.0
20260506024600 58 159 1.0 5.0 0.00 0.07 0.07 76 1010.9
20260506023059 58 233 1.0 9.0 0.00 0.07 0.07 75 1010.9
20260506021603 58 224 1.0 4.0 0.00 0.07 0.07 75 1010.9
20260506020058 59 134 1.0 6.0 0.00 0.07 0.07 75 1010.9
20260506014607 59 224 1.0 5.0 0.00 0.07 0.07 75 1010.8
20260506013056 59 110 1.0 4.0 0.00 0.07 0.07 75 1010.7
20260506011556 59 154 1.0 9.0 0.00 0.07 0.07 75 1010.6
20260506010104 58 129 1.0 4.0 0.00 0.07 0.07 76 1010.5
20260506004555 58 154 2.0 7.0 0.00 0.07 0.07 76 1010.5
20260506003054 58 123 0.0 3.0 0.00 0.07 0.07 76 1010.3
20260506001558 59 146 1.0 6.0 0.00 0.07 0.07 75 1010.0
20260506000058 59 238 1.0 5.0 0.00 0.07 0.07 74 1009.6
20260505234552 60 115 0.0 4.0 0.00 0.07 0.07 73 1009.7
20260505233103 60 148 1.0 6.0 0.00 0.07 0.07 73 1009.2
20260505231552 60 124 1.0 4.0 0.00 0.07 0.07 72 1009.0
20260505230052 61 61 2.0 8.0 0.00 0.07 0.07 72 1008.6
20260505224650 61 175 0.0 4.0 0.00 0.07 0.07 72 1008.6
20260505223051 62 184 0.0 5.0 0.00 0.07 0.07 70 1008.6
20260505220048 64 11 2.0 5.0 0.00 0.07 0.07 67 1008.5
20260505214547 65 158 3.0 6.0 0.00 0.07 0.07 65 1008.3
20260505213048 66 163 1.0 8.0 0.00 0.07 0.07 64 1008.2
20260505211547 67 163 2.0 6.0 0.00 0.07 0.07 63 1008.2
20260505210045 67 213 1.0 10.0 0.00 0.07 0.07 62 1007.9
20260505204544 68 138 1.0 6.0 0.00 0.07 0.07 61 1008.1
20260505203049 69 144 2.0 11.0 0.00 0.07 0.07 59 1008.2
20260505201546 70 167 3.0 6.0 0.00 0.07 0.07 58 1008.2